Waarnemingen

Advertentie
Mijn weer
Tarbes/Ossun, Frankrijk (7621): temperatuur & dauwpunt: 18.02.2017 16:00:00 - 24.02.2017 16:00:00 (CET)Tarbes/Ossun, Frankrijk (7621): temperatuur 5cm: 18.02.2017 16:00:00 - 24.02.2017 16:00:00 (CET)Tarbes/Ossun, Frankrijk (7621): temperatuur -20cm & temperatuur -100cm: 18.02.2017 16:00:00 - 24.02.2017 16:00:00 (CET)Tarbes/Ossun, Frankrijk (7621): windsnelheid & windstoten: 18.02.2017 16:00:00 - 24.02.2017 16:00:00 (CET)Tarbes/Ossun, Frankrijk (7621): windrichting: 18.02.2017 16:00:00 - 24.02.2017 16:00:00 (CET)Tarbes/Ossun, Frankrijk (7621): luchtdruk: 18.02.2017 16:00:00 - 24.02.2017 16:00:00 (CET)Tarbes/Ossun, Frankrijk (7621): zicht: 18.02.2017 16:00:00 - 24.02.2017 16:00:00 (CET)Tarbes/Ossun, Frankrijk (7621): Zonneschijnduur: 18.02.2017 16:00:00 - 24.02.2017 16:00:00 (CET)Tarbes/Ossun, Frankrijk (7621): neerslag: 18.02.2017 16:00:00 - 24.02.2017 16:00:00 (CET)
Datum & Tijd tt [°C] td [°C] tt 5cm [°C] tt -20cm [°C] tt -100cm [°C] ff [km/u] ff [kn] fx [km/u] fx [kn] dd ppp [hPa] vv [km] sd [min] rr [mm]
24.02.2017 16:00:00 9,6 2,7 11,9 8,8 8,7 22 12 31 17 NW 1020,0 19 36 0,0
24.02.2017 15:00:00 9,9 2,5 12,9 8,7 8,6 20 11 29 16 NW 1020,0 53 53 0,0
24.02.2017 14:00:00 9,9 3,8 10,3 8,6 8,6 13 7 23 13 W 1020,1 20 7 0,0
24.02.2017 13:00:00 8,6 4,2 9,5 8,6 8,6 13 7 18 10 W 1020,7 52 12 0,0
24.02.2017 12:00:00 8,2 4,4 9,7 8,6 8,7 11 6 22 12 WZW 1021,0 52 0 0,0
24.02.2017 11:00:00 7,8 5,3 7,9 8,6 8,6 11 6 21 11 W 1021,1 37 0 0,0
24.02.2017 10:00:00 6,9 5,5 6,7 8,6 8,6 8 5 14 8 WNW 1020,5 51 0 0,0
24.02.2017 09:00:00 6,6 5,2 5,9 8,7 8,6 7 4 17 9 W 1019,7 14 0 0,0
24.02.2017 08:00:00 6,1 5,2 5,8 8,7 8,6 15 8 18 10 ZZW 1019,0 20 0 0,2
24.02.2017 07:00:00 6,2 5,3 5,9 8,7 8,6 2 1 35 19 Z 1019,3 3,8 0 0,8
24.02.2017 06:00:00 7,9 7,1 7,4 8,8 8,6 16 8 27 15 NNW 1018,1 1,5 0 0,4
24.02.2017 05:00:00 8,3 6,4 7,1 8,8 8,7 11 6 16 9 ZZW 1016,9 8 0 0,0
24.02.2017 04:00:00 8,0 6,1 5,3 8,9 8,6 7 4 16 9 WZW 1017,0 8 0 0,0
24.02.2017 03:00:00 7,4 5,9 6,1 8,9 8,7 12 6 22 12 ZW 1017,6 7 0 0,0
24.02.2017 02:00:00 8,5 6,6 7,3 8,9 8,6 18 10 24 13 W 1017,9 10 0 0,0
24.02.2017 01:00:00 8,7 7,5 8,1 8,9 8,6 10 5 21 12 WZW 1017,7 3,9 0 0,0
24.02.2017 00:00:00 8,9 7,8 8,4 8,9 8,6 9 5 19 10 WZW 1018,3 3,1 0 0,0
23.02.2017 23:00:00 8,9 7,8 8,5 8,9 8,6 10 6 18 10 WZW 1018,7 3,0 0 0,0
23.02.2017 22:00:00 9,1 8,0 8,6 8,9 8,6 9 5 16 9 W 1018,2 2,7 0 0,0
23.02.2017 21:00:00 9,3 7,9 8,6 8,9 8,6 11 6 16 9 W 1017,4 4,2 0 0,0
23.02.2017 20:00:00 9,5 7,9 8,9 8,9 8,6 9 5 19 10 W 1017,0 3,8 0 0,0
23.02.2017 19:00:00 9,8 7,4 9,5 8,8 8,6 11 6 19 11 WZW 1016,5 6 0 0,0
23.02.2017 18:00:00 9,8 7,2 9,8 8,7 8,6 9 5 20 11 WZW 1016,1 7 0 0,0
23.02.2017 17:00:00 9,8 7,4 10,1 8,5 8,6 15 8 23 12 WNW 1015,8 6 0 0,0
23.02.2017 16:00:00 10,5 7,6 12,2 8,4 8,6 14 8 22 12 W 1015,7 7 0 0,0
23.02.2017 15:00:00 10,4 7,6 13,3 8,3 8,6 14 8 23 12 NW 1015,8 7 4 0,0
23.02.2017 14:00:00 10,7 7,8 15,5 8,1 8,6 17 9 26 14 NW 1016,0 8 9 0,0
23.02.2017 13:00:00 10,1 7,7 15,3 8,0 8,6 15 8 31 17 WNW 1016,7 7 6 0,0
23.02.2017 12:00:00 11,4 5,5 - - - 18 10 29 16 W 1016,5 10 - 0,0
23.02.2017 11:00:00 14,4 5,5 13,3 8,0 8,6 3 1 11 6 W 1015,4 15 6 0,0
23.02.2017 10:00:00 10,6 3,8 6,6 8,0 8,6 8 4 15 8 Z 1016,1 19 0 0,0
23.02.2017 09:00:00 6,5 2,2 3,2 8,2 8,6 9 5 16 9 Z 1016,4 25 0 0,0
23.02.2017 08:00:00 6,4 -0,1 1,5 8,3 8,6 13 7 19 10 ZZO 1015,9 34 0 0,0
23.02.2017 07:00:00 5,2 -0,2 0,4 8,4 8,6 13 7 16 9 Z 1016,1 36 0 0,0
23.02.2017 06:00:00 4,9 0,1 0,5 8,6 8,6 13 7 17 9 Z 1016,3 37 0 0,0
23.02.2017 05:00:00 5,6 -0,5 0,4 8,7 8,6 11 6 19 10 Z 1016,4 39 0 0,0
23.02.2017 04:00:00 5,6 0,2 0,0 8,9 8,6 11 6 18 10 Z 1016,7 40 0 0,0
23.02.2017 03:00:00 4,7 1,0 -0,4 9,0 8,6 11 6 15 8 Z 1017,6 30 0 0,0
23.02.2017 02:00:00 4,5 0,1 0,0 9,2 8,6 10 5 15 8 ZZO 1018,1 27 0 0,0
23.02.2017 01:00:00 3,3 1,7 - - - 8 4 13 7 Z 1018,8 20 - -
23.02.2017 00:00:00 3,7 2,5 -0,7 9,5 8,6 5 3 9 5 ZZO 1019,3 16 0 0,0
22.02.2017 23:00:00 3,1 1,0 -0,4 9,6 8,6 8 4 10 5 ZZO 1020,1 15 0 0,0
22.02.2017 22:00:00 5,6 4,7 1,0 9,6 8,5 6 4 9 5 Z 1020,0 20 0 0,0
22.02.2017 21:00:00 5,8 3,8 1,8 9,6 8,5 6 3 8 4 Z 1020,3 18 0 0,0
22.02.2017 20:00:00 7,5 5,0 2,9 9,6 8,5 6 3 8 4 Z 1020,7 25 0 0,0
22.02.2017 19:00:00 12,5 7,2 4,4 9,4 8,5 4 2 12 6 NO 1019,8 37 8 0,0
22.02.2017 18:00:00 15,0 8,2 16,5 9,1 8,5 9 5 17 9 N 1019,3 47 60 0,0
22.02.2017 17:00:00 16,4 8,1 16,7 8,8 8,5 13 7 21 11 N 1019,2 49 60 0,0
22.02.2017 16:00:00 17,2 7,8 24,6 8,4 8,5 14 8 25 14 N 1019,8 50 60 0,0
22.02.2017 15:00:00 17,2 7,3 26,1 8,1 8,5 12 6 19 11 N 1020,2 34 60 0,0
22.02.2017 14:00:00 16,4 6,8 25,0 7,9 8,5 8 5 18 10 N 1021,1 18 60 0,0
22.02.2017 13:00:00 14,2 7,3 23,2 7,8 8,5 9 5 18 10 N 1022,2 22 60 0,0
22.02.2017 12:00:00 12,6 6,8 18,9 7,8 8,5 6 3 14 8 N 1023,0 14 60 0,0
22.02.2017 11:00:00 10,1 5,5 12,6 7,9 8,5 8 4 14 8 N 1023,6 15 52 0,0
22.02.2017 10:00:00 7,6 5,4 6,4 8,0 8,5 3 2 7 4 NNW 1024,2 10 53 0,0
22.02.2017 09:00:00 4,0 2,7 -0,7 8,1 8,5 5 3 11 6 Z 1024,9 7 47 0,0
22.02.2017 08:00:00 2,3 1,6 -1,7 8,3 8,5 8 5 14 8 Z 1025,0 4,2 0 0,0
22.02.2017 07:00:00 1,9 1,0 -2,3 8,4 8,5 10 5 13 7 ZZO 1024,9 4,7 0 0,0
22.02.2017 06:00:00 1,6 0,7 -2,1 8,6 8,5 9 5 13 7 Z 1024,9 4,0 0 0,0
22.02.2017 05:00:00 2,6 1,7 -0,3 8,8 8,5 11 6 14 8 Z 1025,2 3,4 0 0,0
22.02.2017 04:00:00 3,6 2,0 -1,4 8,9 8,5 10 5 14 7 Z 1025,6 4,3 0 0,0
22.02.2017 03:00:00 2,4 0,8 -1,0 9,0 8,5 8 4 15 8 ZZO 1026,6 5 0 0,0
22.02.2017 02:00:00 3,2 1,9 -0,5 9,2 8,5 9 5 13 7 Z 1026,3 3,7 0 0,0
22.02.2017 01:00:00 4,7 3,0 1,2 9,3 8,5 10 5 13 7 Z 1026,1 4,8 0 0,0
22.02.2017 00:00:00 4,7 3,0 1,5 9,5 8,5 9 5 13 7 ZZO 1026,4 10 0 0,0
21.02.2017 23:00:00 5,5 4,1 - - - 9 5 13 7 Z 1026,3 9 - 0,0
21.02.2017 22:00:00 4,8 2,8 0,5 9,7 8,4 6 4 11 6 Z 1026,5 12 0 0,0
21.02.2017 21:00:00 4,4 2,4 1,3 9,7 8,4 8 4 10 5 Z 1026,6 11 0 0,0
21.02.2017 20:00:00 6,8 4,1 2,2 9,6 8,4 7 4 8 4 ZZW 1026,0 16 0 0,0
21.02.2017 19:00:00 10,6 4,5 2,8 9,5 8,4 5 3 9 5 N 1025,1 20 1 0,0
21.02.2017 18:00:00 12,7 4,9 11,7 9,2 8,4 6 3 10 5 N 1024,8 20 35 0,0
21.02.2017 17:00:00 14,9 4,6 16,0 9,0 8,4 2 1 11 6 W 1024,3 20 60 0,0
21.02.2017 16:00:00 14,6 5,4 23,3 8,7 8,4 4 2 14 7 NNO 1024,6 19 60 0,0
21.02.2017 15:00:00 13,3 5,2 19,7 8,4 8,4 7 4 16 9 NNO 1025,4 33 34 0,0
21.02.2017 14:00:00 13,3 5,2 21,9 8,2 8,4 9 5 18 10 N 1026,1 19 58 0,0
21.02.2017 13:00:00 12,7 4,1 21,2 8,1 8,4 8 4 21 11 ONO 1027,1 18 60 0,0
21.02.2017 12:00:00 11,4 4,4 19,1 8,1 8,4 10 5 22 12 N 1027,8 19 60 0,0
21.02.2017 11:00:00 10,5 4,6 14,7 8,3 8,4 8 4 16 9 NNO 1028,0 18 60 0,0
21.02.2017 10:00:00 8,2 3,4 5,5 8,4 8,4 4 2 10 6 ZZO 1028,3 18 60 0,0
21.02.2017 09:00:00 4,3 2,0 -1,2 8,5 8,4 10 5 13 7 ZZO 1029,0 15 50 0,0
21.02.2017 08:00:00 1,2 0,0 -2,1 8,7 8,4 8 5 13 7 Z 1029,0 11 0 0,0
21.02.2017 07:00:00 1,1 -0,2 -2,0 8,9 8,4 7 4 11 6 ZZW 1028,5 10 0 0,0
21.02.2017 06:00:00 2,5 1,2 - - - 9 5 15 8 ZZO 1028,3 9 - 0,0
21.02.2017 05:00:00 2,5 0,7 -0,4 9,1 8,3 9 5 19 11 Z 1028,6 11 0 0,0
21.02.2017 04:00:00 3,2 1,6 -0,3 9,3 8,3 13 7 18 10 Z 1029,0 11 0 0,0
21.02.2017 03:00:00 4,0 2,7 0,1 9,4 8,3 7 4 15 8 ZZO 1029,3 11 0 0,0
21.02.2017 02:00:00 2,6 0,7 -0,5 9,5 8,3 8 4 11 6 Z 1029,8 8 0 0,0
21.02.2017 01:00:00 5,5 2,8 1,6 9,6 8,3 9 5 12 6 NNO 1029,1 12 0 0,0
21.02.2017 00:00:00 7,9 4,3 6,8 9,7 8,3 3 2 9 5 NO 1028,8 20 0 0,0
20.02.2017 23:00:00 8,1 4,3 6,8 9,8 8,3 0 0 8 4 N 1029,4 16 0 0,0
20.02.2017 22:00:00 7,9 4,1 5,7 9,8 8,3 3 2 5 3 O 1029,5 14 0 0,0
20.02.2017 21:00:00 7,6 4,4 5,5 9,8 8,3 5 3 8 4 N 1029,3 13 0 0,0
20.02.2017 20:00:00 8,8 4,0 4,1 9,8 8,2 3 2 11 6 ONO 1028,7 18 0 0,0
20.02.2017 19:00:00 8,0 4,0 4,1 9,8 8,3 7 4 19 11 NNO 1028,6 21 3 0,0
20.02.2017 18:00:00 9,7 4,5 8,8 9,6 8,3 13 7 20 11 N 1027,8 27 31 0,0
20.02.2017 17:00:00 12,5 4,5 13,2 9,4 8,2 10 5 21 11 N 1027,0 32 60 0,0
20.02.2017 16:00:00 13,5 4,1 22,0 9,1 8,2 5 3 18 10 WNW 1027,1 38 60 0,0
20.02.2017 15:00:00 12,4 4,4 14,8 9,0 8,2 7 4 22 12 N 1027,8 19 21 0,0
20.02.2017 14:00:00 12,5 3,2 14,5 8,8 8,2 6 4 17 9 NNW 1028,4 47 39 0,0
20.02.2017 13:00:00 11,7 3,7 15,8 8,7 8,2 11 6 20 11 N 1028,9 23 40 0,0
20.02.2017 12:00:00 10,9 3,0 17,0 8,7 8,2 6 3 16 8 N 1029,3 20 49 0,0
20.02.2017 11:00:00 10,2 3,2 10,8 8,7 8,2 3 2 11 6 NNW 1029,4 30 16 0,0
20.02.2017 10:00:00 8,4 3,6 7,4 8,7 8,2 8 5 12 7 Z 1029,6 20 0 0,0
20.02.2017 09:00:00 6,9 3,7 6,1 8,8 8,2 8 4 13 7 ZZW 1029,9 20 0 0,0
20.02.2017 08:00:00 6,7 5,0 5,9 8,8 8,2 6 4 10 5 Z 1029,4 10 0 0,0
20.02.2017 07:00:00 6,9 5,5 5,8 8,9 8,2 4 2 7 4 NNO 1029,2 5 0 0,0
20.02.2017 06:00:00 7,5 5,6 5,9 8,9 8,2 3 2 7 4 ZO 1029,0 10 0 0,0
20.02.2017 05:00:00 7,4 6,2 6,6 9,0 8,2 8 4 9 5 Z 1028,8 7 0 0,0
20.02.2017 04:00:00 7,6 5,9 6,8 9,1 8,2 2 1 6 4 W 1029,3 7 0 0,0
20.02.2017 03:00:00 7,7 6,0 6,0 9,1 8,2 3 2 8 5 NNW 1029,5 8 0 0,0
20.02.2017 02:00:00 7,8 5,6 6,1 9,2 8,2 5 3 16 9 WNW 1029,8 10 0 0,0
20.02.2017 01:00:00 8,3 6,4 - - - 11 6 18 10 W 1029,8 8 - -
20.02.2017 00:00:00 8,7 6,5 8,2 9,3 8,2 11 6 19 11 W 1029,8 11 0 0,0
19.02.2017 23:00:00 8,9 7,2 8,3 9,4 8,2 12 7 24 13 W 1029,6 10 0 0,0
19.02.2017 22:00:00 9,2 7,1 7,2 9,4 8,2 16 9 24 13 W 1029,3 12 0 0,0
19.02.2017 21:00:00 8,7 7,0 2,5 9,5 8,2 7 4 17 9 W 1028,7 14 0 0,0
19.02.2017 20:00:00 6,1 3,4 2,5 9,4 8,2 4 2 9 5 WZW 1028,9 18 0 0,0
19.02.2017 19:00:00 9,8 5,0 3,5 9,3 8,1 7 4 12 6 WNW 1027,7 24 4 0,0
19.02.2017 18:00:00 12,0 5,8 10,9 9,1 8,1 3 2 19 10 WNW 1027,1 27 39 0,0
19.02.2017 17:00:00 13,8 5,7 14,9 8,9 8,2 13 7 26 14 NW 1026,8 22 60 0,0
19.02.2017 16:00:00 14,5 5,8 14,1 8,6 8,1 14 7 23 13 NW 1026,8 15 33 0,0
19.02.2017 15:00:00 13,9 5,3 18,1 8,4 8,1 16 9 30 16 WNW 1026,9 20 53 0,0
19.02.2017 14:00:00 14,5 5,6 18,4 8,2 8,1 13 7 20 11 W 1026,9 19 54 0,0
19.02.2017 13:00:00 13,5 6,1 20,2 8,1 8,1 12 7 26 14 W 1027,7 17 56 0,0
19.02.2017 12:00:00 12,0 6,1 19,5 8,0 8,1 9 5 19 10 NW 1028,4 15 57 0,0
19.02.2017 11:00:00 11,4 6,3 12,1 8,0 8,1 4 2 13 7 WZW 1028,5 13 54 0,0
19.02.2017 10:00:00 8,4 4,8 7,5 8,0 8,1 5 3 16 9 ZZO 1028,6 10 0 0,0
19.02.2017 09:00:00 6,9 4,0 6,3 8,1 8,1 9 5 13 7 Z 1028,2 11 0 0,0
19.02.2017 08:00:00 6,5 4,2 6,3 8,1 8,1 10 5 16 9 Z 1027,4 9 0 0,0
19.02.2017 07:00:00 7,6 5,6 6,1 8,1 8,1 10 5 14 8 ZW 1026,6 7 0 0,0
19.02.2017 06:00:00 6,3 4,5 6,0 8,2 8,1 8 5 13 7 ZZO 1026,3 7 0 0,0
19.02.2017 05:00:00 6,4 4,2 5,7 8,2 8,1 5 3 10 5 ZO 1025,7 7 0 0,0
19.02.2017 04:00:00 6,2 3,9 5,4 8,2 8,1 8 5 11 6 ZZO 1025,1 9 0 0,0
19.02.2017 03:00:00 7,9 6,0 7,2 8,3 8,1 6 3 17 9 W 1024,8 6 0 0,0
19.02.2017 02:00:00 8,2 6,5 7,5 8,4 8,1 6 3 16 9 ZW 1024,3 5 0 0,0
19.02.2017 01:00:00 8,2 7,0 7,5 8,4 8,1 6 3 16 9 W 1024,2 4,5 0 0,0
19.02.2017 00:00:00 8,0 7,6 2,1 8,5 8,1 9 5 15 8 WZW 1023,9 3,8 0 0,0
18.02.2017 23:00:00 7,5 5,8 4,5 8,6 8,1 8 4 20 11 WZW 1023,6 3,8 0 0,0
18.02.2017 22:00:00 8,4 6,2 1,8 8,7 8,1 10 5 27 14 W 1023,0 8 0 0,0
18.02.2017 21:00:00 6,4 3,0 1,6 8,7 8,1 8 4 10 5 ZZW 1022,8 39 0 0,0
18.02.2017 20:00:00 7,6 3,8 3,1 8,6 8,1 6 4 9 5 ZZW 1022,0 45 0 0,0
18.02.2017 19:00:00 11,8 2,0 3,5 8,5 8,1 5 3 13 7 NNO 1020,9 50 1 0,0
18.02.2017 18:00:00 13,5 2,7 11,8 8,2 8,1 10 5 20 11 NNO 1020,1 60 55 0,0
18.02.2017 17:00:00 15,6 2,7 15,6 7,9 8,1 15 8 22 12 N 1019,2 48 60 0,0
18.02.2017 16:00:00 16,6 2,9 23,1 7,6 8,1 14 7 26 14 N 1019,1 27 60 0,0

tt = temperatuur
td = dauwpunt
tt 5cm = temperatuur 5cm
tt -20cm = temperatuur -20cm
tt -100cm = temperatuur -100cm
ff = windsnelheid
fx = windstoten
dd = windrichting
ppp = luchtdruk
vv = zicht
sd = Zonneschijnduur
rr = neerslag

Weerstations in de omgeving